Tracking 22882 objects as of 18-Apr-2021
HD Live streaming from Space Station
objects crossing your sky now

COSMOS 767

Track COSMOS 767 now!
10-day predictions
COSMOS 767 is classified as:


NORAD ID: 8291
Int'l Code: 1975-086G
Perigee: 1,462.7 km
Apogee: 1,493.2 km
Inclination: 74.0 °
Period: 115.3 minutes
Semi major axis: 7848 km
RCS: 0.6985 m2 (medium)
Launch date: September 17, 1975
Source: Commonwealth of Independent States (former USSR) (CIS)
Launch site: PLESETSK MISSILE AND SPACE COMPLEX (PKMTR)
aabbcc
Your satellite tracking list
Your tracking list is empty




NASA's NSSDC Master Catalog

Two Line Element Set (TLE):
1 08291U 75086G   21108.44768502 -.00000011  00000-0  33220-4 0  9991
2 08291  74.0114 345.0048 0019408  69.3041 103.6736 12.48488052 77617
Source of the keplerian elements: AFSPC